Location: Allos
(44.2333°N, 6.6333°E)
Time: 13:40:33
(UTC+00:00)

Cosmos 773 Rocket - Visible Passes

Search period start: 12 April 2021 00:00
Search period end: 22 April 2021 00:00
Orbit: 745 x 777 km, 74.1° (Epoch: 11 April)

Date Brightness Start Highest point End Pass type
(mag) Time Alt. Az. Time Alt. Az. Time Alt. Az.
12 Apr 6.4 00:31:37 10° N 00:35:08 18° NE 00:37:25 14° E visible
12 Apr 3.9 02:12:21 10° NNW 02:17:28 74° W 02:17:28 74° W visible
12 Apr 6.8 23:54:04 10° NNE 23:55:31 11° NE 23:56:57 10° ENE visible
13 Apr 4.3 01:33:15 10° NNW 01:38:15 63° NE 01:38:15 63° NE visible
13 Apr 5.8 03:16:32 10° NW 03:18:18 15° WNW 03:18:18 15° WNW visible
14 Apr 5.2 00:54:20 10° N 00:59:10 38° ENE 00:59:10 38° ENE visible
14 Apr 5.3 02:36:31 10° NW 02:39:14 24° WNW 02:39:14 24° WNW visible
15 Apr 5.9 00:15:40 10° N 00:19:54 24° ENE 00:20:13 24° ENE visible
15 Apr 5.0 01:56:59 10° NNW 02:00:18 36° NW 02:00:18 36° NW visible
15 Apr 6.4 23:37:22 10° NNE 23:40:22 15° NE 23:41:20 14° ENE visible
16 Apr 4.8 01:17:44 10° NNW 01:21:26 46° NNW 01:21:26 46° NNW visible
17 Apr 5.1 00:38:42 10° NNW 00:42:37 43° NNE 00:42:37 43° NNE visible
17 Apr 6.0 02:21:31 10° NW 02:22:43 15° WNW 02:22:43 15° WNW visible
17 Apr 5.6 23:59:52 10° N 00:03:52 31° NE 00:03:52 31° NE visible
18 Apr 5.6 01:41:43 10° NW 01:43:57 23° NW 01:43:57 23° NW visible
18 Apr 6.1 23:21:16 10° N 23:25:10 20° NE 23:25:10 20° NE visible
19 Apr 5.3 01:02:19 10° NNW 01:05:15 33° NW 01:05:15 33° NW visible
19 Apr 6.5 22:43:15 10° NNE 22:45:36 13° NE 22:46:30 12° ENE visible
20 Apr 5.1 00:23:08 10° NNW 00:26:35 41° N 00:26:35 41° N visible
20 Apr 5.3 23:44:11 10° N 23:47:57 37° NNE 23:47:57 37° NNE visible
21 Apr 6.1 01:26:37 10° NW 01:28:03 16° WNW 01:28:03 16° WNW visible
21 Apr 5.7 23:05:24 10° N 23:09:21 27° NE 23:09:21 27° NE visible
